Hourly Data Report for June 06, 2017

BORDEN AWOS
ONTARIO

44°16'20.000" N
79°54'42.000" W
222.50 m
611B002
71534
YBN

Download Data

Hourly Data (June 2017)
Hourly Data Report for June 6, 2017
TIME
LST
Temp Definition
°C
Dew Point Definition
°C
Rel Hum Definition
%
Precip. Amount Definition
mm

Wind Dir Definition
10's deg

Wind Spd Definition
km/h
Visibility Definition
km
Stn Press Definition
kPa
Hmdx Definition


Wind Chill Definition


Weather Definition


00:00 12.3 12.1 99   32 11 14.5 98.23     Drizzle
01:00 12.0 11.8 99   31 9 14.5 98.20     LegendNANA
02:00 11.8 11.7 99   32 9 14.5 98.16     Drizzle
03:00 11.8 11.8 100   33 11 5.6 98.15     Rain
04:00 11.8 11.8 100   32 9 3.1 98.16     Drizzle
05:00 12.3 12.3 100   33 9 2.9 98.19     Rain
06:00 12.8 12.7 99   35 13 8.0 98.24     Drizzle
07:00 13.0 13.0 100   36 15 14.5 98.28     Drizzle
08:00 13.4 13.2 99   35 13 14.5 98.34     LegendNANA
09:00 13.9 13.2 96   1 15 14.5 98.37     Drizzle
10:00 13.6 13.0 96   1 15 5.6 98.43     Drizzle
11:00 13.7 13.1 96   2 13 14.5 98.48     LegendNANA
12:00 13.5 12.5 94   5 17 14.5 98.54     LegendNANA
13:00 13.0 12.3 96   4 7 4.8 98.60     Drizzle
14:00 13.4 11.5 88   4 11 14.5 98.65     LegendNANA
15:00 14.6 12.0 84   4 9 14.5 98.69     LegendNANA
16:00 13.6 12.3 92   2 6 14.5 98.75     Rain
17:00 13.0 11.7 92   8 17 6.4 98.83     Drizzle
18:00 13.2 12.1 93     0 14.5 98.88     LegendNANA
19:00 13.3 11.1 86   3 7 14.5 98.93     LegendNANA
20:00 11.8 8.5 80   4 7 14.5 99.02     LegendNANA
21:00 10.0 7.8 86   34 6 14.5 99.06     LegendNANA
22:00 8.1 7.4 95   34 6 14.5 99.11     LegendNANA
23:00 6.8 6.8 100   32 6 14.5 99.15     LegendNANA

Notes on Data Quality.

Legend

  • E = Estimated
  • M = Missing
  • NA = Not Available*
  • [empty] = Indicates an unobserved value
Date modified: